Time,TemperatureF,DewpointF,PressureIn,WindDirection,WindDirectionDegrees,WindSpeedMPH,WindSpeedGustMPH,Humidity,HourlyPrecipIn,Conditions,Clouds,dailyrainin,SoftwareType,DateUTC
2013-04-04 00:00:00,75.1,70.6,30.06,SE,124,3.0,3.0,86,0.00,,,0.00,Wunderground v.1.15,2013-04-04 04:00:00,
2013-04-04 00:10:00,75.1,70.6,30.06,ESE,116,3.0,3.0,86,0.00,,,0.00,Wunderground v.1.15,2013-04-04 04:10:00,
2013-04-04 00:20:00,75.1,70.6,30.07,ESE,115,3.0,4.0,86,0.00,,,0.00,Wunderground v.1.15,2013-04-04 04:20:00,
2013-04-04 00:30:00,75.1,70.6,30.06,SE,132,3.0,3.0,86,0.00,,,0.00,Wunderground v.1.15,2013-04-04 04:30:00,
2013-04-04 00:40:00,75.0,70.5,30.06,East,100,2.0,5.0,86,0.00,,,0.00,Wunderground v.1.15,2013-04-04 04:40:00,
2013-04-04 00:50:00,75.2,70.7,30.06,SE,134,4.0,5.0,86,0.00,,,0.00,Wunderground v.1.15,2013-04-04 04:50:00,
2013-04-04 01:00:00,75.3,70.8,30.06,ESE,110,3.0,4.0,86,0.00,,,0.00,Wunderground v.1.15,2013-04-04 05:00:00,
2013-04-04 01:10:00,75.3,70.5,30.06,SSE,158,2.0,4.0,85,0.00,,,0.00,Wunderground v.1.15,2013-04-04 05:10:00,
2013-04-04 01:20:00,75.2,70.4,30.05,South,188,3.0,3.0,85,0.00,,,0.00,Wunderground v.1.15,2013-04-04 05:20:00,
2013-04-04 01:30:00,75.2,70.0,30.06,SSW,198,4.0,4.0,84,0.00,,,0.00,Wunderground v.1.15,2013-04-04 05:30:00,
2013-04-04 01:40:00,75.3,70.1,30.06,WSW,253,4.0,4.0,84,0.00,,,0.00,Wunderground v.1.15,2013-04-04 05:40:00,
2013-04-04 01:50:00,75.3,70.5,30.05,SSE,162,4.0,4.0,85,0.00,,,0.00,Wunderground v.1.15,2013-04-04 05:50:00,
2013-04-04 02:00:00,75.3,70.5,30.04,SSE,155,4.0,4.0,85,0.00,,,0.00,Wunderground v.1.15,2013-04-04 06:00:00,
2013-04-04 02:10:00,75.2,70.4,30.04,ESE,108,4.0,4.0,85,0.00,,,0.00,Wunderground v.1.15,2013-04-04 06:10:00,
2013-04-04 02:20:00,75.2,70.4,30.04,ESE,110,4.0,6.0,85,0.00,,,0.00,Wunderground v.1.15,2013-04-04 06:20:00,
2013-04-04 02:30:00,75.2,70.0,30.03,ESE,122,5.0,9.0,84,0.00,,,0.00,Wunderground v.1.15,2013-04-04 06:30:00,
2013-04-04 02:40:00,75.1,69.9,30.03,South,188,5.0,6.0,84,0.00,,,0.00,Wunderground v.1.15,2013-04-04 06:40:00,
2013-04-04 02:50:00,75.1,70.3,30.02,SE,130,5.0,5.0,85,0.00,,,0.00,Wunderground v.1.15,2013-04-04 06:50:00,
2013-04-04 03:00:00,75.1,70.3,30.02,South,169,5.0,5.0,85,0.00,,,0.00,Wunderground v.1.15,2013-04-04 07:00:00,
2013-04-04 03:10:00,74.9,70.4,30.01,ESE,109,7.0,7.0,86,0.00,,,0.00,Wunderground v.1.15,2013-04-04 07:10:00,
2013-04-04 03:20:00,74.8,70.3,30.01,SSE,150,5.0,5.0,86,0.00,,,0.00,Wunderground v.1.15,2013-04-04 07:20:00,
2013-04-04 03:30:00,74.6,69.8,30.01,ESE,118,6.0,9.0,85,0.00,,,0.00,Wunderground v.1.15,2013-04-04 07:30:00,
2013-04-04 03:40:00,74.5,69.7,30.01,SW,217,7.0,7.0,85,0.00,,,0.00,Wunderground v.1.15,2013-04-04 07:40:00,
2013-04-04 03:50:00,74.6,69.8,30.00,SE,139,7.0,7.0,85,0.00,,,0.00,Wunderground v.1.15,2013-04-04 07:50:00,
2013-04-04 04:00:00,74.5,69.7,30.00,SSE,156,6.0,6.0,85,0.00,,,0.00,Wunderground v.1.15,2013-04-04 08:00:00,
2013-04-04 04:10:00,74.5,69.7,30.00,SSE,158,6.0,6.0,85,0.00,,,0.00,Wunderground v.1.15,2013-04-04 08:10:00,
2013-04-04 04:20:00,74.5,69.7,30.00,WNW,291,5.0,5.0,85,0.00,,,0.00,Wunderground v.1.15,2013-04-04 08:20:00,
2013-04-04 04:30:00,74.4,69.6,30.00,South,191,6.0,6.0,85,0.00,,,0.00,Wunderground v.1.15,2013-04-04 08:30:00,
2013-04-04 04:40:00,74.2,69.4,30.00,SSW,197,7.0,8.0,85,0.00,,,0.00,Wunderground v.1.15,2013-04-04 08:40:00,
2013-04-04 04:50:00,74.3,69.5,30.00,SSW,193,5.0,7.0,85,0.00,,,0.00,Wunderground v.1.15,2013-04-04 08:50:00,
2013-04-04 05:00:00,74.4,69.6,30.00,SE,146,9.0,9.0,85,0.00,,,0.00,Wunderground v.1.15,2013-04-04 09:00:00,
2013-04-04 05:10:00,74.3,69.1,30.00,SSW,212,6.0,9.0,84,0.00,,,0.00,Wunderground v.1.15,2013-04-04 09:10:00,
2013-04-04 05:20:00,74.5,69.3,30.00,South,190,8.0,8.0,84,0.00,,,0.00,Wunderground v.1.15,2013-04-04 09:20:00,
2013-04-04 05:30:00,74.4,69.2,30.01,SE,129,7.0,9.0,84,0.00,,,0.00,Wunderground v.1.15,2013-04-04 09:30:00,
2013-04-04 05:40:00,74.5,69.3,30.00,SE,144,7.0,7.0,84,0.00,,,0.00,Wunderground v.1.15,2013-04-04 09:40:00,
2013-04-04 05:50:00,74.5,69.3,30.01,SW,228,6.0,9.0,84,0.00,,,0.00,Wunderground v.1.15,2013-04-04 09:50:00,
2013-04-04 06:00:00,74.5,69.3,30.01,SE,129,7.0,7.0,84,0.00,,,0.00,Wunderground v.1.15,2013-04-04 10:00:00,
2013-04-04 06:10:00,74.4,69.2,30.01,SE,143,6.0,6.0,84,0.00,,,0.00,Wunderground v.1.15,2013-04-04 10:10:00,
2013-04-04 06:20:00,74.5,69.3,30.01,South,180,7.0,7.0,84,0.00,,,0.00,Wunderground v.1.15,2013-04-04 10:20:00,
2013-04-04 06:30:00,74.5,69.3,30.01,SSE,156,6.0,6.0,84,0.00,,,0.00,Wunderground v.1.15,2013-04-04 10:30:00,
2013-04-04 06:40:00,74.4,69.2,30.02,SW,217,7.0,7.0,84,0.00,,,0.00,Wunderground v.1.15,2013-04-04 10:40:00,
2013-04-04 06:50:00,74.4,69.2,30.02,SSE,167,7.0,7.0,84,0.00,,,0.00,Wunderground v.1.15,2013-04-04 10:50:00,
2013-04-04 07:00:00,74.5,69.3,30.03,SSE,158,7.0,7.0,84,0.00,,,0.00,Wunderground v.1.15,2013-04-04 11:00:00,
2013-04-04 07:10:00,74.3,68.8,30.03,SSE,163,6.0,9.0,83,0.00,,,0.00,Wunderground v.1.15,2013-04-04 11:10:00,
2013-04-04 07:20:00,74.4,68.9,30.03,SSE,167,5.0,5.0,83,0.00,,,0.00,Wunderground v.1.15,2013-04-04 11:20:00,
2013-04-04 07:30:00,74.5,69.0,30.04,SSE,158,5.0,7.0,83,0.00,,,0.00,Wunderground v.1.15,2013-04-04 11:30:00,
2013-04-04 07:40:00,74.9,69.4,30.04,SSE,164,5.0,5.0,83,0.00,,,0.00,Wunderground v.1.15,2013-04-04 11:40:00,
2013-04-04 07:50:00,75.2,69.7,30.03,South,186,5.0,10.0,83,0.00,,,0.00,Wunderground v.1.15,2013-04-04 11:50:00,
2013-04-04 08:00:00,75.7,70.2,30.03,SSE,160,7.0,8.0,83,0.00,,,0.00,Wunderground v.1.15,2013-04-04 12:00:00,
2013-04-04 08:10:00,76.1,70.2,30.03,SE,133,6.0,6.0,82,0.00,,,0.00,Wunderground v.1.15,2013-04-04 12:10:00,
2013-04-04 08:20:00,76.6,70.3,30.03,SSE,165,7.0,12.0,81,0.00,,,0.00,Wunderground v.1.15,2013-04-04 12:20:00,
2013-04-04 08:30:00,76.4,70.5,30.03,South,173,7.0,7.0,82,0.00,,,0.00,Wunderground v.1.15,2013-04-04 12:30:00,
2013-04-04 08:40:00,76.6,70.3,30.02,South,186,7.0,7.0,81,0.00,,,0.00,Wunderground v.1.15,2013-04-04 12:40:00,
2013-04-04 08:50:00,76.5,70.2,30.01,SE,146,8.0,8.0,81,0.00,,,0.00,Wunderground v.1.15,2013-04-04 12:50:00,
2013-04-04 09:00:00,76.5,70.2,30.01,SSW,192,7.0,7.0,81,0.00,,,0.00,Wunderground v.1.15,2013-04-04 13:00:00,
2013-04-04 09:10:00,76.5,70.2,30.01,SSE,149,8.0,8.0,81,0.00,,,0.00,Wunderground v.1.15,2013-04-04 13:10:00,
2013-04-04 09:20:00,76.6,70.3,30.01,SSE,165,9.0,12.0,81,0.00,,,0.00,Wunderground v.1.15,2013-04-04 13:20:00,
2013-04-04 09:30:00,77.0,70.7,30.01,SSE,166,9.0,11.0,81,0.00,,,0.00,Wunderground v.1.15,2013-04-04 13:30:00,
2013-04-04 09:40:00,77.0,70.7,30.01,SW,219,8.0,8.0,81,0.00,,,0.00,Wunderground v.1.15,2013-04-04 13:40:00,
2013-04-04 09:50:00,77.2,70.9,30.00,SSE,153,8.0,11.0,81,0.00,,,0.00,Wunderground v.1.15,2013-04-04 13:50:00,
2013-04-04 10:00:00,77.2,71.3,30.00,SE,141,9.0,9.0,82,0.00,,,0.00,Wunderground v.1.15,2013-04-04 14:00:00,
2013-04-04 10:10:00,78.0,71.0,30.00,SSW,192,8.0,17.0,79,0.00,,,0.00,Wunderground v.1.15,2013-04-04 14:10:00,
2013-04-04 10:20:00,77.8,70.4,30.01,South,186,12.0,16.0,78,0.00,,,0.00,Wunderground v.1.15,2013-04-04 14:20:00,
2013-04-04 10:30:00,78.1,71.1,30.01,SE,136,8.0,8.0,79,0.00,,,0.00,Wunderground v.1.15,2013-04-04 14:30:00,
2013-04-04 10:40:00,79.2,71.4,30.01,SSE,167,7.0,14.0,77,0.00,,,0.00,Wunderground v.1.15,2013-04-04 14:40:00,
2013-04-04 10:50:00,79.2,71.7,30.01,SW,217,9.0,9.0,78,0.00,,,0.00,Wunderground v.1.15,2013-04-04 14:50:00,
2013-04-04 11:00:00,79.3,71.8,30.01,SE,127,10.0,11.0,78,0.00,,,0.00,Wunderground v.1.15,2013-04-04 15:00:00,
2013-04-04 11:10:00,79.6,71.8,30.01,SSE,156,10.0,14.0,77,0.00,,,0.00,Wunderground v.1.15,2013-04-04 15:10:00,
2013-04-04 11:20:00,80.2,72.3,30.01,SE,146,8.0,8.0,77,0.00,,,0.00,Wunderground v.1.15,2013-04-04 15:20:00,
2013-04-04 11:30:00,80.5,72.2,30.01,ESE,122,8.0,13.0,76,0.00,,,0.00,Wunderground v.1.15,2013-04-04 15:30:00,
2013-04-04 11:40:00,80.6,72.7,30.02,SSW,195,10.0,10.0,77,0.00,,,0.00,Wunderground v.1.15,2013-04-04 15:40:00,
2013-04-04 11:50:00,80.4,72.5,30.02,South,169,11.0,12.0,77,0.00,,,0.00,Wunderground v.1.15,2013-04-04 15:50:00,
2013-04-04 12:00:00,79.9,72.0,30.02,SSE,147,11.0,11.0,77,0.00,,,0.00,Wunderground v.1.15,2013-04-04 16:00:00,
2013-04-04 12:10:00,79.4,71.9,30.02,SSW,205,10.0,10.0,78,0.00,,,0.00,Wunderground v.1.15,2013-04-04 16:10:00,
2013-04-04 12:20:00,79.7,72.6,30.03,WSW,239,10.0,11.0,79,0.00,,,0.00,Wunderground v.1.15,2013-04-04 16:20:00,
2013-04-04 12:30:00,80.1,73.0,30.03,SSE,155,9.0,11.0,79,0.00,,,0.00,Wunderground v.1.15,2013-04-04 16:30:00,
2013-04-04 12:40:00,79.4,72.3,30.02,SSE,163,10.0,10.0,79,0.00,,,0.00,Wunderground v.1.15,2013-04-04 16:40:00,
2013-04-04 12:50:00,79.7,72.2,30.02,SE,132,10.0,10.0,78,0.00,,,0.00,Wunderground v.1.15,2013-04-04 16:50:00,
2013-04-04 13:00:00,80.0,72.5,30.02,SE,127,9.0,9.0,78,0.00,,,0.00,Wunderground v.1.15,2013-04-04 17:00:00,
2013-04-04 13:10:00,80.4,73.3,30.01,South,187,8.0,8.0,79,0.00,,,0.00,Wunderground v.1.15,2013-04-04 17:10:00,
2013-04-04 13:20:00,80.1,73.0,30.02,SSW,208,9.0,9.0,79,0.00,,,0.00,Wunderground v.1.15,2013-04-04 17:20:00,
2013-04-04 13:30:00,80.5,73.0,30.01,ESE,117,9.0,9.0,78,0.00,,,0.00,Wunderground v.1.15,2013-04-04 17:30:00,
2013-04-04 13:40:00,80.6,73.1,30.01,SW,225,9.0,17.0,78,0.00,,,0.00,Wunderground v.1.15,2013-04-04 17:40:00,
2013-04-04 13:50:00,80.4,72.9,30.01,South,180,11.0,11.0,78,0.00,,,0.00,Wunderground v.1.15,2013-04-04 17:50:00,
2013-04-04 14:00:00,80.4,73.3,30.00,ESE,112,10.0,10.0,79,0.00,,,0.00,Wunderground v.1.15,2013-04-04 18:00:00,
2013-04-04 14:10:00,81.2,73.7,30.00,NE,45,7.0,7.0,78,0.00,,,0.00,Wunderground v.1.15,2013-04-04 18:10:00,
2013-04-04 14:20:00,81.1,72.8,30.00,SE,127,9.0,9.0,76,0.00,,,0.00,Wunderground v.1.15,2013-04-04 18:20:00,
2013-04-04 14:30:00,80.9,73.0,30.00,SW,233,10.0,14.0,77,0.00,,,0.00,Wunderground v.1.15,2013-04-04 18:30:00,
2013-04-04 14:40:00,80.5,73.0,29.99,South,178,9.0,11.0,78,0.00,,,0.00,Wunderground v.1.15,2013-04-04 18:40:00,
2013-04-04 14:50:00,80.5,73.0,29.99,South,169,10.0,10.0,78,0.00,,,0.00,Wunderground v.1.15,2013-04-04 18:50:00,
2013-04-04 15:00:00,81.2,73.7,29.98,East,99,7.0,7.0,78,0.00,,,0.00,Wunderground v.1.15,2013-04-04 19:00:00,
2013-04-04 15:10:00,80.1,73.0,29.97,SW,217,12.0,12.0,79,0.00,,,0.00,Wunderground v.1.15,2013-04-04 19:10:00,
2013-04-04 15:20:00,80.4,72.9,29.96,SSE,165,9.0,13.0,78,0.00,,,0.00,Wunderground v.1.15,2013-04-04 19:20:00,
2013-04-04 15:30:00,80.2,73.5,29.96,ESE,103,8.0,13.0,80,0.00,,,0.00,Wunderground v.1.15,2013-04-04 19:30:00,
2013-04-04 15:40:00,79.4,72.7,29.95,SSE,163,10.0,11.0,80,0.00,,,0.00,Wunderground v.1.15,2013-04-04 19:40:00,
2013-04-04 15:50:00,78.9,72.6,29.95,SW,229,11.0,11.0,81,0.00,,,0.00,Wunderground v.1.15,2013-04-04 19:50:00,
2013-04-04 16:10:00,78.2,73.0,29.95,ESE,115,10.0,10.0,84,0.00,,,0.00,Wunderground v.1.15,2013-04-04 20:10:00,
2013-04-04 16:20:00,78.0,72.8,29.95,South,172,6.0,12.0,84,0.00,,,0.00,Wunderground v.1.15,2013-04-04 20:20:00,
2013-04-04 16:30:00,77.5,72.6,29.94,SE,124,9.0,9.0,85,0.00,,,0.00,Wunderground v.1.15,2013-04-04 20:30:00,
2013-04-04 16:40:00,77.3,72.8,29.95,SSW,194,9.0,17.0,86,0.00,,,0.00,Wunderground v.1.15,2013-04-04 20:40:00,
2013-04-04 16:50:00,77.1,72.6,29.95,SSE,165,9.0,12.0,86,0.00,,,0.00,Wunderground v.1.15,2013-04-04 20:50:00,
2013-04-04 17:00:00,77.1,72.9,29.97,West,268,8.0,8.0,87,0.00,,,0.00,Wunderground v.1.15,2013-04-04 21:00:00,
2013-04-04 17:10:00,76.8,73.0,29.97,ESE,122,6.0,6.0,88,0.11,,,0.02,Wunderground v.1.15,2013-04-04 21:10:00,
2013-04-04 17:20:00,74.8,70.0,30.00,NNW,346,6.0,6.0,85,1.45,,,0.13,Wunderground v.1.15,2013-04-04 21:20:00,
2013-04-04 17:30:00,70.1,67.0,30.01,West,264,6.0,8.0,90,4.00,,,0.48,Wunderground v.1.15,2013-04-04 21:30:00,
2013-04-04 17:40:00,68.3,66.2,30.02,SW,219,9.0,9.0,93,0.46,,,0.86,Wunderground v.1.15,2013-04-04 21:40:00,
2013-04-04 17:50:00,67.6,65.8,30.01,NW,318,6.0,9.0,94,0.08,,,0.88,Wunderground v.1.15,2013-04-04 21:50:00,
2013-04-04 18:00:00,68.0,66.5,30.02,West,270,7.0,11.0,95,0.06,,,0.89,Wunderground v.1.15,2013-04-04 22:00:00,
2013-04-04 18:10:00,68.3,66.8,30.02,WNW,293,6.0,6.0,95,0.04,,,0.89,Wunderground v.1.15,2013-04-04 22:10:00,
2013-04-04 18:20:00,68.5,67.0,30.02,West,266,4.0,4.0,95,0.84,,,0.92,Wunderground v.1.15,2013-04-04 22:20:00,
2013-04-04 18:30:00,68.5,67.3,30.02,NNW,342,4.0,4.0,96,0.13,,,0.97,Wunderground v.1.15,2013-04-04 22:30:00,
2013-04-04 18:40:00,68.5,67.3,30.02,NW,321,4.0,5.0,96,0.07,,,0.99,Wunderground v.1.15,2013-04-04 22:40:00,
2013-04-04 18:50:00,68.5,67.3,30.01,NNW,344,4.0,4.0,96,0.20,,,1.01,Wunderground v.1.15,2013-04-04 22:50:00,
2013-04-04 19:00:00,68.4,67.2,30.01,NNW,338,5.0,5.0,96,0.12,,,1.03,Wunderground v.1.15,2013-04-04 23:00:00,
2013-04-04 19:10:00,68.3,67.1,30.01,NW,316,3.0,3.0,96,0.11,,,1.05,Wunderground v.1.15,2013-04-04 23:10:00,
2013-04-04 19:20:00,68.4,67.5,30.00,NW,326,2.0,3.0,97,0.10,,,1.07,Wunderground v.1.15,2013-04-04 23:20:00,
2013-04-04 19:30:00,68.3,67.4,29.99,NE,40,3.0,4.0,97,0.06,,,1.08,Wunderground v.1.15,2013-04-04 23:30:00,
2013-04-04 19:40:00,68.4,67.5,29.98,ENE,77,2.0,2.0,97,0.00,,,1.08,Wunderground v.1.15,2013-04-04 23:40:00,
2013-04-04 19:50:00,68.4,67.5,29.96,East,83,3.0,4.0,97,0.00,,,1.09,Wunderground v.1.15,2013-04-04 23:50:00,
2013-04-04 20:00:00,68.7,67.8,29.92,East,87,5.0,7.0,97,0.00,,,1.09,Wunderground v.1.15,2013-04-05 00:00:00,
2013-04-04 20:10:00,69.0,68.1,29.92,East,91,6.0,6.0,97,0.00,,,1.09,Wunderground v.1.15,2013-04-05 00:10:00,
2013-04-04 20:20:00,69.3,68.4,29.94,ENE,62,4.0,4.0,97,0.00,,,1.09,Wunderground v.1.15,2013-04-05 00:20:00,
2013-04-04 20:30:00,69.5,68.6,29.93,ESE,113,4.0,8.0,97,0.00,,,1.09,Wunderground v.1.15,2013-04-05 00:30:00,
2013-04-04 20:40:00,69.7,68.8,29.93,ESE,108,5.0,6.0,97,0.00,,,1.09,Wunderground v.1.15,2013-04-05 00:40:00,
2013-04-04 20:50:00,69.7,68.8,29.94,East,97,5.0,5.0,97,0.00,,,1.09,Wunderground v.1.15,2013-04-05 00:50:00,
2013-04-04 21:00:00,69.9,69.0,29.94,ENE,67,4.0,4.0,97,0.00,,,1.09,Wunderground v.1.15,2013-04-05 01:00:00,
2013-04-04 21:10:00,70.2,69.3,29.94,ESE,118,4.0,4.0,97,0.00,,,1.09,Wunderground v.1.15,2013-04-05 01:10:00,
2013-04-04 21:20:00,70.4,69.5,29.95,ENE,61,3.0,3.0,97,0.00,,,1.09,Wunderground v.1.15,2013-04-05 01:20:00,
2013-04-04 21:30:00,70.5,69.3,29.94,East,96,4.0,4.0,96,0.00,,,1.09,Wunderground v.1.15,2013-04-05 01:30:00,
2013-04-04 21:40:00,70.7,69.5,29.94,ESE,115,4.0,4.0,96,0.00,,,1.09,Wunderground v.1.15,2013-04-05 01:40:00,
2013-04-04 21:50:00,71.0,69.8,29.94,ESE,115,5.0,5.0,96,0.00,,,1.09,Wunderground v.1.15,2013-04-05 01:50:00,
2013-04-04 22:00:00,71.0,69.8,29.94,ESE,120,5.0,5.0,96,0.00,,,1.09,Wunderground v.1.15,2013-04-05 02:00:00,
2013-04-04 22:10:00,71.5,70.3,29.95,SE,134,4.0,4.0,96,0.00,,,1.09,Wunderground v.1.15,2013-04-05 02:10:00,
2013-04-04 22:20:00,71.7,70.2,29.95,ESE,121,4.0,4.0,95,0.00,,,1.09,Wunderground v.1.15,2013-04-05 02:20:00,
2013-04-04 22:30:00,72.0,70.5,29.96,SE,129,2.0,3.0,95,0.00,,,1.09,Wunderground v.1.15,2013-04-05 02:30:00,
2013-04-04 22:40:00,72.2,70.7,29.97,East,88,4.0,4.0,95,0.00,,,1.09,Wunderground v.1.15,2013-04-05 02:40:00,
2013-04-04 22:50:00,72.4,70.6,29.97,SE,143,3.0,4.0,94,0.00,,,1.09,Wunderground v.1.15,2013-04-05 02:50:00,
2013-04-04 23:00:00,72.6,70.8,29.98,SE,136,2.0,2.0,94,0.00,,,1.09,Wunderground v.1.15,2013-04-05 03:00:00,
2013-04-04 23:10:00,72.9,71.1,29.98,SE,146,3.0,3.0,94,0.00,,,1.09,Wunderground v.1.15,2013-04-05 03:10:00,
2013-04-04 23:20:00,72.9,71.1,29.98,SSE,153,3.0,3.0,94,0.00,,,1.09,Wunderground v.1.15,2013-04-05 03:20:00,
2013-04-04 23:30:00,73.0,71.2,29.98,SSE,162,3.0,3.0,94,0.00,,,1.10,Wunderground v.1.15,2013-04-05 03:30:00,
2013-04-04 23:40:00,72.9,71.1,29.99,SSE,160,3.0,3.0,94,0.00,,,1.10,Wunderground v.1.15,2013-04-05 03:40:00,
2013-04-04 23:50:00,73.0,71.2,29.99,SSW,192,2.0,2.0,94,0.00,,,1.10,Wunderground v.1.15,2013-04-05 03:50:00,